Orbital Elements at Epoch 2459200.5 (2020-Dec-17.0) TDB
Reference: JPL 13 (heliocentric ecliptic J2000)
Element | Value | Uncertainty (1-sigma) | Units |
e | .02959243025120029 | 5.6584e-08 | |
a | 2.764938498950845 | 2.3585e-08 | au |
q | 2.683117249271784 | 1.617e-07 | au |
i | 1.310993104499243 | 5.6262e-06 | deg |
node | 150.8303903004292 | 0.00027358 | deg |
peri | 97.28046049915508 | 0.00029079 | deg |
M | 63.69169466461484 | 9.9151e-05 | deg |
tp | 2458903.397063681528 (2020-Feb-23.89706368) | 0.0004623 | TDB |
period | 1679.29362906514 4.60 | 2.1486e-05 5.883e-08 | d yr |
n | .2143758505178225 | 2.7429e-09 | deg/d |
Q | 2.846759748629907 | 2.4283e-08 | au |
|
| | Orbit Determination Parameters
Additional Information
|